CW0949 Weather Reports


time (UTC)temp
C
wind
direction
speed
KPH
gust
KPH
rain 1hr
cm
rain 24hr
cm
rain mn
cm
humidity
%
barometer
mb
20260506185004 11 13 0.0 11.3 0.00 0.05 0.03 77 1011.6
20260506184008 11 26 1.6 14.5 0.00 0.05 0.03 76 1011.6
20260506183509 11 20 0.0 14.5 0.00 0.05 0.03 76 1011.6
20260506183015 11 355 0.0 9.7 0.00 0.05 0.03 76 1011.6
20260506182510 11 82 0.0 0.0 0.00 0.05 0.03 76 1011.6
20260506182008 11 97 1.6 14.5 0.00 0.05 0.03 76 1011.5
20260506181511 11 103 1.6 14.5 0.00 0.05 0.03 75 1011.3
20260506181005 11 82 0.0 12.9 0.00 0.05 0.03 75 1011.2
20260506180503 11 40 0.0 0.0 0.00 0.05 0.03 74 1011.2
20260506180012 12 60 0.0 0.0 0.00 0.05 0.03 74 1011.2
20260506175503 12 62 1.6 20.9 0.00 0.05 0.03 72 1011.0
20260506175003 12 42 1.6 20.9 0.00 0.05 0.03 71 1010.9
20260506174509 12 30 1.6 12.9 0.00 0.05 0.03 71 1010.8
20260506174002 12 34 3.2 12.9 0.00 0.05 0.03 69 1010.8
20260506173006 12 86 1.6 11.3 0.00 0.05 0.03 68 1010.7
20260506172502 12 81 1.6 11.3 0.00 0.05 0.03 68 1010.7
20260506172002 12 88 3.2 12.9 0.00 0.05 0.03 68 1010.6
20260506171506 12 60 4.8 17.7 0.00 0.05 0.03 67 1010.6
20260506171002 12 5 6.4 17.7 0.00 0.05 0.03 66 1010.5
20260506170501 13 5 4.8 16.1 0.00 0.05 0.03 65 1010.4
20260506165502 13 17 6.4 16.1 0.00 0.05 0.03 64 1010.3
20260506165002 13 346 4.8 24.1 0.00 0.05 0.03 64 1010.4
20260506164506 13 42 3.2 24.1 0.00 0.05 0.03 62 1010.3
20260506164002 13 53 3.2 17.7 0.00 0.05 0.03 63 1010.2
20260506163502 13 0 4.8 20.9 0.00 0.05 0.03 62 1010.1
20260506163006 13 0 1.6 20.9 0.00 0.05 0.03 61 1010.1
20260506162501 14 0 0.0 17.7 0.00 0.05 0.03 59 1010.1
20260506162001 14 0 0.0 16.1 0.00 0.05 0.03 61 1010.0
20260506161002 13 92 1.6 16.1 0.00 0.05 0.03 61 1010.0
20260506160502 14 78 1.6 16.1 0.00 0.05 0.03 62 1010.1
20260506160006 13 294 1.6 16.1 0.00 0.05 0.03 62 1010.0
20260506155501 13 5 0.0 14.5 0.00 0.05 0.03 62 1009.8
20260506155002 13 32 0.0 6.4 0.00 0.05 0.03 63 1009.8
20260506154507 13 38 1.6 20.9 0.00 0.05 0.03 65 1009.9
20260506153501 13 36 3.2 17.7 0.00 0.05 0.03 63 1009.9
20260506153006 14 355 1.6 16.1 0.00 0.05 0.03 66 1009.9
20260506152001 14 19 1.6 14.5 0.00 0.05 0.03 64 1009.9
20260506151507 15 84 1.6 12.9 0.00 0.05 0.03 63 1009.8
20260506151002 15 59 0.0 6.4 0.00 0.05 0.03 64 1009.8
20260506150502 15 51 0.0 8.0 0.00 0.05 0.03 64 1009.8
20260506150008 15 54 0.0 9.7 0.00 0.05 0.03 64 1009.7
20260506145502 15 9 1.6 12.9 0.00 0.05 0.03 63 1009.7
20260506144506 15 59 1.6 17.7 0.00 0.05 0.03 63 1009.6
20260506143501 15 76 1.6 17.7 0.00 0.05 0.03 61 1009.6
20260506143001 15 15 1.6 8.0 0.00 0.05 0.03 63 1009.6
20260506142002 15 5 1.6 16.1 0.00 0.05 0.03 63 1009.7
20260506141002 15 14 0.0 11.3 0.00 0.05 0.03 60 1009.6
20260506140501 15 32 0.0 14.5 0.00 0.05 0.03 61 1009.6
20260506140001 15 13 1.6 14.5 0.00 0.05 0.03 60 1009.6
20260506135501 15 70 1.6 16.1 0.00 0.05 0.03 61 1009.6
20260506134958 15 65 1.6 16.1 0.00 0.05 0.03 60 1009.5
20260506134458 15 355 1.6 14.5 0.00 0.05 0.03 59 1009.5
20260506133956 15 42 0.0 11.3 0.00 0.05 0.03 62 1009.4
20260506132953 15 44 0.0 11.3 0.00 0.05 0.03 61 1009.4
20260506131951 15 69 1.6 17.7 0.00 0.05 0.03 59 1009.4
20260506131451 15 34 1.6 14.5 0.00 0.05 0.03 60 1009.3
20260506130449 15 344 1.6 12.9 0.00 0.05 0.03 63 1009.3
20260506125450 15 10 0.0 12.9 0.00 0.05 0.03 64 1009.3
20260506124949 15 43 1.6 16.1 0.00 0.05 0.03 65 1009.3
20260506124450 15 66 1.6 16.1 0.00 0.05 0.03 64 1009.3
20260506123948 15 37 0.0 14.5 0.00 0.05 0.03 64 1009.3
20260506123448 15 34 1.6 11.3 0.00 0.05 0.03 66 1009.3
20260506122947 15 34 1.6 11.3 0.00 0.05 0.03 66 1009.3
20260506122445 14 0 1.6 14.5 0.00 0.05 0.03 66 1009.3
20260506121945 14 19 1.6 14.5 0.00 0.05 0.03 67 1009.3
20260506121447 14 0 0.0 8.0 0.00 0.05 0.03 69 1009.2
20260506120943 14 261 0.0 3.2 0.00 0.05 0.03 69 1009.3
20260506120440 14 262 1.6 12.9 0.00 0.05 0.03 67 1009.3
20260506115939 14 28 1.6 12.9 0.00 0.05 0.03 68 1009.3
20260506115438 14 312 0.0 9.7 0.00 0.05 0.03 70 1009.1
20260506114944 14 351 0.0 9.7 0.00 0.05 0.03 72 1009.2
20260506114437 14 299 0.0 6.4 0.00 0.05 0.03 72 1009.1
20260506113932 13 281 0.0 8.0 0.00 0.05 0.03 74 1009.1
20260506113433 13 51 0.0 9.7 0.00 0.05 0.03 73 1009.2
20260506112945 13 32 0.0 9.7 0.00 0.08 0.03 73 1009.1
20260506112433 13 28 1.6 9.7 0.00 0.08 0.03 73 1009.2
20260506111933 13 31 0.0 9.7 0.00 0.08 0.03 75 1009.1
20260506111433 13 39 0.0 8.0 0.00 0.08 0.03 75 1009.2
20260506110934 13 42 1.6 14.5 0.00 0.08 0.03 75 1009.2
20260506105933 13 59 1.6 14.5 0.00 0.10 0.03 75 1009.2
20260506104931 13 340 0.0 4.8 0.00 0.10 0.03 77 1009.2
20260506104431 13 333 1.6 14.5 0.00 0.10 0.03 76 1009.2
20260506103931 13 333 1.6 14.5 0.00 0.10 0.03 78 1009.2
20260506103434 13 332 1.6 12.9 0.00 0.10 0.03 79 1009.2
20260506102929 13 24 1.6 12.9 0.00 0.10 0.03 79 1009.3
20260506101431 13 268 0.0 6.4 0.00 0.10 0.03 82 1009.3
20260506100930 13 250 0.0 11.3 0.00 0.10 0.03 83 1009.2
20260506100431 12 13 0.0 11.3 0.00 0.10 0.03 83 1009.2
20260506095929 12 348 1.6 11.3 0.00 0.10 0.03 83 1009.1
20260506095429 12 5 0.0 11.3 0.00 0.10 0.03 85 1009.1
20260506094931 12 317 0.0 9.7 0.00 0.10 0.03 87 1009.1
20260506093924 12 299 1.6 9.7 0.00 0.10 0.03 89 1009.1
20260506093425 12 336 1.6 9.7 0.00 0.10 0.03 89 1009.1
20260506092923 12 351 0.0 8.0 0.00 0.10 0.03 91 1009.1
20260506092422 11 342 0.0 4.8 0.00 0.10 0.03 92 1009.1
20260506091921 11 345 0.0 4.8 0.00 0.10 0.03 92 1009.0
20260506091424 11 344 0.0 3.2 0.00 0.10 0.03 92 1009.0
20260506090921 11 344 0.0 3.2 0.00 0.10 0.03 93 1009.1
20260506085922 11 342 0.0 0.0 0.00 0.10 0.03 93 1009.0
20260506084922 11 9 0.0 6.4 0.00 0.10 0.03 93 1008.8
20260506084425 11 5 0.0 11.3 0.00 0.10 0.03 93 1008.8
20260506083907 11 9 0.0 11.3 0.00 0.10 0.03 93 1008.9
20260506083406 11 355 0.0 0.0 0.00 0.10 0.03 94 1008.8
20260506082903 11 23 0.0 6.4 0.00 0.10 0.03 94 1008.7
20260506082403 10 9 1.6 12.9 0.00 0.10 0.03 95 1008.7
20260506080903 10 355 0.0 3.2 0.00 0.10 0.03 96 1008.8
20260506080403 10 304 0.0 3.2 0.00 0.10 0.03 96 1008.8
20260506073401 9 288 0.0 1.6 0.00 0.10 0.03 98 1008.7
20260506072900 9 351 0.0 8.0 0.00 0.10 0.03 98 1008.6
20260506072401 9 13 0.0 8.0 0.00 0.10 0.03 98 1008.6
20260506071901 9 9 0.0 0.0 0.00 0.10 0.03 98 1008.6
20260506071401 9 16 0.0 0.0 0.00 0.10 0.03 98 1008.6
20260506070902 9 13 0.0 0.0 0.00 0.10 0.03 98 1008.6
20260506070401 9 17 0.0 0.0 0.00 0.10 0.03 98 1008.6
20260506062356 8 31 0.0 9.7 0.00 0.10 0.03 99 1008.3
20260506061855 8 31 0.0 9.7 0.00 0.10 0.03 99 1008.4
20260506060852 8 19 0.0 0.0 0.00 0.10 0.03 98 1008.2
20260506060350 8 19 0.0 0.0 0.00 0.10 0.03 98 1008.2
20260506051344 8 0 0.0 6.4 0.00 0.10 0.03 98 1008.0
20260506050841 8 20 0.0 6.4 0.00 0.10 0.03 97 1008.1
20260506050339 8 22 0.0 0.0 0.00 0.10 0.03 98 1008.1
20260506044838 8 17 0.0 0.0 0.00 0.10 0.03 97 1008.0
20260506044334 8 23 0.0 0.0 0.00 0.10 0.03 97 1008.0
20260506043833 8 22 0.0 1.6 0.00 0.10 0.03 97 1008.0
20260506043334 8 34 0.0 1.6 0.00 0.10 0.03 97 1008.1
20260506042832 8 23 0.0 0.0 0.00 0.10 0.03 97 1008.1
20260506042329 8 23 0.0 0.0 0.00 0.10 0.03 97 1008.0
20260506041829 8 24 0.0 0.0 0.00 0.10 0.03 97 1008.0
20260506041329 8 21 0.0 0.0 0.00 0.10 0.03 97 1008.1
20260506040829 8 22 0.0 0.0 0.00 0.10 0.03 96 1008.1
20260506040329 8 23 0.0 0.0 0.00 0.10 0.03 96 1008.0
20260506035829 8 28 0.0 0.0 0.00 0.10 0.03 96 1008.0
20260506035329 8 28 0.0 0.0 0.00 0.10 0.03 96 1008.0
20260506034329 8 29 0.0 0.0 0.00 0.10 0.03 96 1008.1
20260506033330 8 32 0.0 0.0 0.00 0.10 0.03 96 1008.1
20260506032829 8 32 0.0 0.0 0.00 0.10 0.03 96 1008.1
20260506032327 8 33 0.0 0.0 0.00 0.10 0.03 96 1008.2
20260506031827 8 33 0.0 0.0 0.00 0.10 0.03 95 1008.2
20260506031318 8 33 0.0 0.0 0.03 0.10 0.03 95 1008.2
20260506030814 9 32 0.0 0.0 0.03 0.10 0.03 95 1008.3
20260506030306 9 32 0.0 0.0 0.03 0.10 0.03 95 1008.4
20260506025806 9 31 0.0 0.0 0.03 0.10 0.03 94 1008.3
20260506025305 9 30 0.0 0.0 0.03 0.10 0.03 94 1008.4
20260506024802 9 22 0.0 0.0 0.03 0.10 0.03 94 1008.4
20260506024303 9 22 0.0 3.2 0.03 0.10 0.03 94 1008.4
20260506023804 9 16 1.6 17.7 0.03 0.10 0.03 94 1008.5
20260506023303 9 23 1.6 17.7 0.03 0.10 0.03 93 1008.5
20260506022802 9 54 0.0 0.0 0.03 0.10 0.03 93 1008.4
20260506022305 9 54 0.0 0.0 0.03 0.10 0.03 93 1008.5
20260506021802 9 54 0.0 0.0 0.03 0.10 0.03 93 1008.4
20260506021302 9 48 0.0 6.4 0.00 0.08 0.00 92 1008.4
20260506020802 9 46 0.0 6.4 0.00 0.08 0.00 92 1008.4
20260506020302 9 52 0.0 3.2 0.00 0.08 0.00 92 1008.5
20260506015802 9 54 0.0 3.2 0.00 0.08 0.00 91 1008.5
20260506014755 9 43 0.0 6.4 0.00 0.08 0.00 91 1008.5
20260506014246 9 45 0.0 6.4 0.00 0.08 0.00 91 1008.6
20260506013739 9 51 0.0 8.0 0.00 0.08 0.00 91 1008.6
20260506013231 9 28 0.0 8.0 0.00 0.08 0.00 91 1008.6
20260506012730 9 32 0.0 8.0 0.00 0.08 0.00 91 1008.6
20260506012230 9 28 0.0 12.9 0.00 0.08 0.00 90 1008.6
20260506011730 10 15 1.6 14.5 0.00 0.08 0.00 90 1008.7
20260506011231 10 16 0.0 14.5 0.00 0.08 0.00 91 1008.7
20260506010730 10 338 0.0 8.0 0.00 0.08 0.00 90 1008.7
20260506010231 10 336 0.0 8.0 0.00 0.08 0.00 90 1008.7
20260506005226 10 340 0.0 0.0 0.00 0.08 0.00 91 1008.7
20260506004718 10 340 0.0 0.0 0.00 0.08 0.00 91 1009.0
20260506004214 10 340 0.0 0.0 0.00 0.08 0.00 91 1008.9
20260506003713 10 340 0.0 4.8 0.00 0.08 0.00 91 1008.9
20260506003212 10 340 0.0 4.8 0.00 0.08 0.00 91 1008.9
20260506002713 10 355 0.0 0.0 0.00 0.08 0.00 90 1008.9
20260506002213 10 355 0.0 0.0 0.00 0.08 0.00 91 1009.0
20260506001709 10 355 0.0 0.0 0.00 0.08 0.00 91 1009.0
20260506001209 10 355 0.0 0.0 0.00 0.08 0.00 91 1009.1
20260506000708 10 355 0.0 0.0 0.00 0.08 0.00 91 1009.2
20260506000208 10 355 0.0 12.9 0.00 0.08 0.00 91 1009.1
20260505235706 10 355 0.0 12.9 0.00 0.08 0.00 91 1009.1
20260505235207 10 351 0.0 9.7 0.00 0.08 0.00 91 1009.2
20260505234702 10 336 0.0 0.0 0.00 0.08 0.00 91 1009.2
20260505234202 10 336 0.0 0.0 0.00 0.08 0.00 91 1009.2
20260505233706 10 336 0.0 6.4 0.00 0.08 0.00 91 1009.2
20260505233202 10 335 0.0 6.4 0.00 0.08 0.00 91 1009.2
20260505232702 10 333 0.0 0.0 0.00 0.08 0.00 91 1009.3
20260505232206 10 333 0.0 0.0 0.00 0.08 0.00 91 1009.2
20260505231702 10 332 0.0 0.0 0.00 0.08 0.00 91 1009.3
20260505230707 10 335 0.0 0.0 0.00 0.08 0.00 91 1009.4
20260505225206 10 25 0.0 0.0 0.00 0.13 0.00 92 1009.6
20260505224705 10 24 0.0 0.0 0.00 0.13 0.00 92 1009.5
20260505224203 10 24 0.0 0.0 0.00 0.15 0.00 93 1009.5
20260505223708 10 24 0.0 0.0 0.00 0.15 0.00 93 1009.5
20260505223202 10 26 0.0 0.0 0.03 0.18 0.00 93 1009.5
20260505222206 10 24 0.0 4.8 0.03 0.23 0.00 92 1009.5
20260505221702 10 24 0.0 4.8 0.03 0.23 0.00 92 1009.6
20260505220853 10 30 0.0 0.0 0.03 0.28 0.00 92 1009.5
20260505215206 10 22 0.0 6.4 0.03 0.41 0.33 93 1009.7
20260505214202 11 34 0.0 6.4 0.03 0.51 0.33 95 1009.7
20260505213706 11 36 0.0 0.0 0.03 0.61 0.33 96 1009.7
20260505213202 11 40 0.0 0.0 0.00 0.64 0.30 97 1009.7
20260505212701 11 40 0.0 0.0 0.00 0.71 0.30 97 1009.8
20260505212206 11 40 0.0 0.0 0.00 0.71 0.30 97 1009.7
20260505211702 11 40 0.0 0.0 0.00 0.74 0.30 97 1009.7
20260505211202 11 40 0.0 0.0 0.00 0.76 0.30 97 1009.8
20260505210708 11 40 0.0 0.0 0.00 0.76 0.30 97 1009.7
20260505210202 11 40 0.0 0.0 0.00 0.76 0.30 96 1009.8
20260505205211 11 40 0.0 0.0 0.00 0.76 0.30 96 1009.9
20260505204702 11 40 0.0 0.0 0.00 0.79 0.30 96 1009.8
20260505204202 11 40 0.0 0.0 0.00 0.79 0.30 96 1009.8
20260505203202 11 40 0.0 0.0 0.00 0.79 0.30 95 1009.8
20260505202702 11 40 0.0 0.0 0.00 0.79 0.30 95 1009.8
20260505202206 11 40 0.0 0.0 0.00 0.79 0.30 96 1009.8
20260505201702 11 40 0.0 0.0 0.00 0.79 0.30 96 1009.7
20260505201201 11 41 0.0 0.0 0.00 0.81 0.30 96 1009.7
20260505200707 11 41 0.0 0.0 0.00 0.81 0.30 96 1009.8
20260505200203 11 38 0.0 0.0 0.00 0.81 0.30 96 1009.7
20260505195702 11 38 0.0 0.0 0.00 0.81 0.30 97 1009.7
20260505195205 11 38 0.0 0.0 0.00 0.81 0.30 96 1009.7
20260505194702 11 38 0.0 0.0 0.00 0.81 0.30 96 1009.7
20260505194202 11 38 0.0 0.0 0.00 0.81 0.30 96 1009.6
20260505193700 11 38 0.0 0.0 0.00 0.81 0.30 96 1009.5
20260505192659 11 38 0.0 0.0 0.00 0.81 0.30 96 1009.4
20260505192158 11 38 0.0 0.0 0.00 0.81 0.30 96 1009.4
20260505191148 11 38 0.0 0.0 0.00 0.81 0.30 96 1009.2
20260505190642 11 38 0.0 0.0 0.00 0.81 0.30 96 1009.3
20260505190140 11 38 0.0 0.0 0.00 0.81 0.30 96 1009.3
20260505185638 11 38 0.0 0.0 0.00 0.81 0.30 96 1009.3